Regional Weather Roundup
Issued by NWS

Home | Current Version | Previous Version | Graphics & Text | Print | Product List | Glossary On
Versions: 1 2 3 4 5 6 7 8 9 10 11 12 13 14 15 16 17 18 19 20 21 22 23 24 25 26 27 28 29 30 31 32 33 34 35 36 37 38 39 40 41 42 43 44 45 46 47 48 49 50
299
ASUS45 KBOI 281710
RWRID

IDAHO REGIONAL WEATHER ROUNDUP
NATIONAL WEATHER SERVICE BOISE ID
1100 AM MDT THU APR 28 2016

NOTE: "FAIR" INDICATES FEW OR NO CLOUDS BELOW 12000 FEET
WITH NO SIGNIFICANT WEATHER AND/OR OBSTRUCTIONS TO VISIBILITY

IDZ012-014-281800-
SOUTHWEST IDAHO


CITY           SKY/WX    TMP DP  RH WIND       PRES   REMARKS
BOISE          FAIR      55  42  61 NW6       29.84F
CALDWELL       FAIR      59  41  51 W15G22    29.85F
MOUNTAIN HOME  FAIR      58  40  51 W12       29.83F
$$

IDZ016-017-281800-
SOUTHCENTRAL IDAHO


CITY           SKY/WX    TMP DP  RH WIND       PRES   REMARKS
BURLEY         FAIR      51  33  50 N7        29.81F
JEROME         FAIR      48  40  73 SW8       29.84S
TWIN FALLS     CLOUDY    46  33  60 CALM      29.84S
$$

IDZ019>023-281800-
SOUTHEAST IDAHO


CITY           SKY/WX    TMP DP  RH WIND       PRES   REMARKS
IDAHO FALLS    MOSUNNY   52  28  39 N15       29.82F
POCATELLO      MOSUNNY   51  32  48 NE15      29.81F
REXBURG        SUNNY     50  27  40 NE13      29.82F
$$

IDZ006-010-011-018-031-032-281800-
CENTRAL IDAHO MOUNTAINS


CITY           SKY/WX    TMP DP  RH WIND       PRES   REMARKS
MCCALL         FAIR      48  30  49 N10       29.87F
HAILEY         MOSUNNY   50  27  40 CALM      29.83S
STANLEY          N/A     41  26  55 N7        29.88S
SALMON         CLOUDY    46  27  46 E5        29.92S
CHALLIS        CLOUDY    45  25  45 N14       29.89R
$$

IDZ002-004-006-007-026-281800-
NORTHERN IDAHO


CITY           SKY/WX    TMP DP  RH WIND       PRES   REMARKS
LEWISTON       FAIR      61  41  47 NW8       29.98S
LOWELL           N/A     56  38  50 CALM      29.97F
COEUR D`ALENE  FAIR      55  37  50 N7        29.97F
MULLAN PASS    CLOUDY    36  28  73 CALM      29.99R
$$




USA.gov is the U.S. government's official web portal to all federal, state and local government web resources and services.